カタログに戻る

STARLINK-34280

運用中通信VLEO
NORAD 64594·PAYLOAD·🇺🇸 United States

打ち上げ Jun 25, 2025 から Cape Canaveral Space Force Station

Loading…

次のパス (今後24時間)

TLE

最新Source: CelesTrak SupGP

元期: Sep 14, 2026, 21:10 UTC

1 64594C 25137A   26257.88243056 -.00018086  00000+0 -53410-3 0  2571
2 64594  53.1572 173.7618 0001314  98.3902 102.2059 15.34414900    17

AllMySatでSTARLINK-34280をリアルタイム追跡

Download on the App Store